Location: Chiroubles
(46.1812°N, 4.6660°E)
Time: 18:47:22
(UTC+00:00)

COSMOS 2428 - Pass Details

Date: 15 August 2020
Orbit: 844 x 859 km, 70.9° (Epoch: 23 September)

Event Time Altitude Azimuth Distance (km) Brightness Sun altitude
Rises 20:47:33 0° 339° (NNW) 3,435 7.0 -18.0°
Reaches altitude 10° 20:50:36 10° 355° (N) 2,498 5.9 -18.4°
Maximum altitude 20:55:00 22° 45° (NE) 1,786 4.4 -18.9°
Enters shadow 20:57:47 16° 82° (E) 2,099 4.4 -19.2°
